Location: Corralito
(10.2667°N, 66.9500°W)
Time: 08:58:45
(UTC+00:00)

GPS 2-15 Rocket1 - Pass Details

Date: 09 December 2023
Orbit: 617 x 666 km, 19.8° (Epoch: 02 March)

Event Time Altitude Azimuth Distance (km) Brightness Sun altitude
Exits shadow 10:03:05 - 281° (W) 2,054 5.1 -7.8°
Maximum altitude 10:07:52 63° 200° (SSW) 697 3.4 -6.7°
Drops below altitude 10° 10:12:32 10° 119° (ESE) 2,009 7.5 -5.7°
Sets 10:14:57 0° 115° (ESE) 2,926 9.5 -5.1°
